owner,sensor,date,latitude,longitude,vertical_datum,sea_water_practical_salinity,qcFlag 
TCOON,ioos:station:TCOON:042:1,2017-04-01T00:30:00Z,27.8888,-97.5696,0.0,5.0,1111122 
TCOON,ioos:station:TCOON:042:1,2017-04-01T01:30:00Z,27.8888,-97.5696,0.0,5.1,1111122 
TCOON,ioos:station:TCOON:042:1,2017-04-01T02:30:00Z,27.8888,-97.5696,0.0,4.6,1111122 
TCOON,ioos:station:TCOON:042:1,2017-04-01T03:30:00Z,27.8888,-97.5696,0.0,5.5,1111122 
TCOON,ioos:station:TCOON:042:1,2017-04-01T04:30:00Z,27.8888,-97.5696,0.0,5.2,1111122 
TCOON,ioos:station:TCOON:042:1,2017-04-01T05:30:00Z,27.8888,-97.5696,0.0,6.3,1111122 
TCOON,ioos:station:TCOON:042:1,2017-04-01T06:30:00Z,27.8888,-97.5696,0.0,7.2,1111122 
TCOON,ioos:station:TCOON:042:1,2017-04-01T07:30:00Z,27.8888,-97.5696,0.0,7.3,1111122 
TCOON,ioos:station:TCOON:042:1,2017-04-01T08:30:00Z,27.8888,-97.5696,0.0,7.6,1111122 
TCOON,ioos:station:TCOON:042:1,2017-04-01T09:30:00Z,27.8888,-97.5696,0.0,7.6,1111122 
TCOON,ioos:station:TCOON:042:1,2017-04-01T10:30:00Z,27.8888,-97.5696,0.0,7.6,1111122 
TCOON,ioos:station:TCOON:042:1,2017-04-01T11:30:00Z,27.8888,-97.5696,0.0,7.6,1111122 
TCOON,ioos:station:TCOON:042:1,2017-04-01T12:30:00Z,27.8888,-97.5696,0.0,8.4,1111122 
TCOON,ioos:station:TCOON:042:1,2017-04-01T13:30:00Z,27.8888,-97.5696,0.0,8.6,1111122 
TCOON,ioos:station:TCOON:042:1,2017-04-01T14:30:00Z,27.8888,-97.5696,0.0,7.5,1111122 
TCOON,ioos:station:TCOON:042:1,2017-04-01T15:30:00Z,27.8888,-97.5696,0.0,7.4,1111122 
TCOON,ioos:station:TCOON:042:1,2017-04-01T16:30:00Z,27.8888,-97.5696,0.0,7.8,1111122 
TCOON,ioos:station:TCOON:042:1,2017-04-01T17:30:00Z,27.8888,-97.5696,0.0,10.2,1111122 
TCOON,ioos:station:TCOON:042:1,2017-04-01T18:30:00Z,27.8888,-97.5696,0.0,11.8,1111122 
TCOON,ioos:station:TCOON:042:1,2017-04-01T19:30:00Z,27.8888,-97.5696,0.0,13.4,1111122 
TCOON,ioos:station:TCOON:042:1,2017-04-01T20:30:00Z,27.8888,-97.5696,0.0,13.7,1111122 
TCOON,ioos:station:TCOON:042:1,2017-04-01T21:30:00Z,27.8888,-97.5696,0.0,14.0,1111122 
TCOON,ioos:station:TCOON:042:1,2017-04-01T22:30:00Z,27.8888,-97.5696,0.0,17.3,1111122 
TCOON,ioos:station:TCOON:042:1,2017-04-01T23:30:00Z,27.8888,-97.5696,0.0,18.8,1111122 
TCOON,ioos:station:TCOON:042:1,2017-04-02T00:30:00Z,27.8888,-97.5696,0.0,17.4,1111122 
TCOON,ioos:station:TCOON:042:1,2017-04-02T01:30:00Z,27.8888,-97.5696,0.0,16.3,1111122 
TCOON,ioos:station:TCOON:042:1,2017-04-02T02:30:00Z,27.8888,-97.5696,0.0,14.9,1111122 
TCOON,ioos:station:TCOON:042:1,2017-04-02T03:30:00Z,27.8888,-97.5696,0.0,15.4,1111122 
TCOON,ioos:station:TCOON:042:1,2017-04-02T04:30:00Z,27.8888,-97.5696,0.0,16.7,1111122 
TCOON,ioos:station:TCOON:042:1,2017-04-02T05:30:00Z,27.8888,-97.5696,0.0,17.8,1111122 
TCOON,ioos:station:TCOON:042:1,2017-04-02T06:30:00Z,27.8888,-97.5696,0.0,18.9,1111122 
TCOON,ioos:station:TCOON:042:1,2017-04-02T07:30:00Z,27.8888,-97.5696,0.0,19.6,1111122 
TCOON,ioos:station:TCOON:042:1,2017-04-02T08:30:00Z,27.8888,-97.5696,0.0,20.7,1111122 
TCOON,ioos:station:TCOON:042:1,2017-04-02T09:30:00Z,27.8888,-97.5696,0.0,21.0,1111122 
TCOON,ioos:station:TCOON:042:1,2017-04-02T10:30:00Z,27.8888,-97.5696,0.0,21.5,1111122 
TCOON,ioos:station:TCOON:042:1,2017-04-02T11:30:00Z,27.8888,-97.5696,0.0,21.0,1111122 
TCOON,ioos:station:TCOON:042:1,2017-04-02T12:30:00Z,27.8888,-97.5696,0.0,21.5,1111122 
TCOON,ioos:station:TCOON:042:1,2017-04-02T13:30:00Z,27.8888,-97.5696,0.0,21.1,1111122 
TCOON,ioos:station:TCOON:042:1,2017-04-02T14:30:00Z,27.8888,-97.5696,0.0,21.2,1111122 
TCOON,ioos:station:TCOON:042:1,2017-04-02T15:30:00Z,27.8888,-97.5696,0.0,21.1,1111122 
TCOON,ioos:station:TCOON:042:1,2017-04-02T16:30:00Z,27.8888,-97.5696,0.0,21.0,1111122 
TCOON,ioos:station:TCOON:042:1,2017-04-02T17:30:00Z,27.8888,-97.5696,0.0,20.8,1111122 
TCOON,ioos:station:TCOON:042:1,2017-04-02T18:30:00Z,27.8888,-97.5696,0.0,19.2,1111122 
TCOON,ioos:station:TCOON:042:1,2017-04-02T19:30:00Z,27.8888,-97.5696,0.0,20.2,1111122 
TCOON,ioos:station:TCOON:042:1,2017-04-02T20:30:00Z,27.8888,-97.5696,0.0,20.6,1111122 
TCOON,ioos:station:TCOON:042:1,2017-04-02T21:30:00Z,27.8888,-97.5696,0.0,20.6,1111122 
TCOON,ioos:station:TCOON:042:1,2017-04-02T22:30:00Z,27.8888,-97.5696,0.0,20.6,1111122 
TCOON,ioos:station:TCOON:042:1,2017-04-02T23:30:00Z,27.8888,-97.5696,0.0,20.5,1111122 
TCOON,ioos:station:TCOON:042:1,2017-04-03T00:30:00Z,27.8888,-97.5696,0.0,19.3,1111122 
TCOON,ioos:station:TCOON:042:1,2017-04-03T01:30:00Z,27.8888,-97.5696,0.0,19.0,1111122 
TCOON,ioos:station:TCOON:042:1,2017-04-03T02:30:00Z,27.8888,-97.5696,0.0,19.4,1111122 
TCOON,ioos:station:TCOON:042:1,2017-04-03T03:30:00Z,27.8888,-97.5696,0.0,19.6,1111122 
TCOON,ioos:station:TCOON:042:1,2017-04-03T04:30:00Z,27.8888,-97.5696,0.0,19.5,1111122 
TCOON,ioos:station:TCOON:042:1,2017-04-03T05:30:00Z,27.8888,-97.5696,0.0,18.8,1111122 
TCOON,ioos:station:TCOON:042:1,2017-04-03T06:30:00Z,27.8888,-97.5696,0.0,18.4,1111122 
TCOON,ioos:station:TCOON:042:1,2017-04-03T07:30:00Z,27.8888,-97.5696,0.0,18.6,1111122 
TCOON,ioos:station:TCOON:042:1,2017-04-03T08:30:00Z,27.8888,-97.5696,0.0,17.6,1111122 
TCOON,ioos:station:TCOON:042:1,2017-04-03T09:30:00Z,27.8888,-97.5696,0.0,16.9,1111122 
TCOON,ioos:station:TCOON:042:1,2017-04-03T10:30:00Z,27.8888,-97.5696,0.0,16.1,1111122 
TCOON,ioos:station:TCOON:042:1,2017-04-03T11:30:00Z,27.8888,-97.5696,0.0,15.6,1111122 
TCOON,ioos:station:TCOON:042:1,2017-04-03T12:30:00Z,27.8888,-97.5696,0.0,15.0,1111122 
TCOON,ioos:station:TCOON:042:1,2017-04-03T13:30:00Z,27.8888,-97.5696,0.0,14.4,1111122 
TCOON,ioos:station:TCOON:042:1,2017-04-03T14:30:00Z,27.8888,-97.5696,0.0,13.7,1111122 
TCOON,ioos:station:TCOON:042:1,2017-04-03T15:30:00Z,27.8888,-97.5696,0.0,13.1,1111122 
TCOON,ioos:station:TCOON:042:1,2017-04-03T16:30:00Z,27.8888,-97.5696,0.0,14.4,1111122 
TCOON,ioos:station:TCOON:042:1,2017-04-03T17:30:00Z,27.8888,-97.5696,0.0,14.0,1111122 
TCOON,ioos:station:TCOON:042:1,2017-04-03T18:30:00Z,27.8888,-97.5696,0.0,14.1,1111122 
TCOON,ioos:station:TCOON:042:1,2017-04-03T19:30:00Z,27.8888,-97.5696,0.0,14.1,1111122 
TCOON,ioos:station:TCOON:042:1,2017-04-03T20:30:00Z,27.8888,-97.5696,0.0,13.9,1111122 
TCOON,ioos:station:TCOON:042:1,2017-04-03T21:30:00Z,27.8888,-97.5696,0.0,12.9,1111122 
TCOON,ioos:station:TCOON:042:1,2017-04-03T22:30:00Z,27.8888,-97.5696,0.0,13.1,1111122 
TCOON,ioos:station:TCOON:042:1,2017-04-04T00:30:00Z,27.8888,-97.5696,0.0,16.4,1111122 
TCOON,ioos:station:TCOON:042:1,2017-04-04T01:30:00Z,27.8888,-97.5696,0.0,16.7,1111122 
TCOON,ioos:station:TCOON:042:1,2017-04-04T02:30:00Z,27.8888,-97.5696,0.0,17.1,1111122 
TCOON,ioos:station:TCOON:042:1,2017-04-04T04:30:00Z,27.8888,-97.5696,0.0,17.9,1111122 
TCOON,ioos:station:TCOON:042:1,2017-04-04T05:30:00Z,27.8888,-97.5696,0.0,18.0,1111122 
TCOON,ioos:station:TCOON:042:1,2017-04-04T06:30:00Z,27.8888,-97.5696,0.0,18.0,1111122 
TCOON,ioos:station:TCOON:042:1,2017-04-04T07:30:00Z,27.8888,-97.5696,0.0,18.1,1111122 
TCOON,ioos:station:TCOON:042:1,2017-04-04T08:30:00Z,27.8888,-97.5696,0.0,18.0,1111122 
TCOON,ioos:station:TCOON:042:1,2017-04-04T09:30:00Z,27.8888,-97.5696,0.0,16.1,1111122 
TCOON,ioos:station:TCOON:042:1,2017-04-04T10:30:00Z,27.8888,-97.5696,0.0,15.2,1111122 
TCOON,ioos:station:TCOON:042:1,2017-04-04T11:30:00Z,27.8888,-97.5696,0.0,14.6,1111122 
TCOON,ioos:station:TCOON:042:1,2017-04-04T12:30:00Z,27.8888,-97.5696,0.0,13.5,1111122 
TCOON,ioos:station:TCOON:042:1,2017-04-04T13:30:00Z,27.8888,-97.5696,0.0,13.5,1111122 
TCOON,ioos:station:TCOON:042:1,2017-04-04T14:30:00Z,27.8888,-97.5696,0.0,13.8,1111122 
TCOON,ioos:station:TCOON:042:1,2017-04-04T15:30:00Z,27.8888,-97.5696,0.0,13.9,1111122 
TCOON,ioos:station:TCOON:042:1,2017-04-04T16:30:00Z,27.8888,-97.5696,0.0,14.2,1111122 
TCOON,ioos:station:TCOON:042:1,2017-04-04T17:30:00Z,27.8888,-97.5696,0.0,16.5,1111122 
TCOON,ioos:station:TCOON:042:1,2017-04-04T18:30:00Z,27.8888,-97.5696,0.0,16.5,1111122 
TCOON,ioos:station:TCOON:042:1,2017-04-04T19:30:00Z,27.8888,-97.5696,0.0,15.8,1111122 
TCOON,ioos:station:TCOON:042:1,2017-04-04T20:30:00Z,27.8888,-97.5696,0.0,15.3,1111122 
TCOON,ioos:station:TCOON:042:1,2017-04-04T21:30:00Z,27.8888,-97.5696,0.0,17.2,1111122 
TCOON,ioos:station:TCOON:042:1,2017-04-04T22:30:00Z,27.8888,-97.5696,0.0,19.8,1111122 
TCOON,ioos:station:TCOON:042:1,2017-04-06T14:30:00Z,27.8888,-97.5696,0.0,9.8,1111122 
TCOON,ioos:station:TCOON:042:1,2017-04-06T15:30:00Z,27.8888,-97.5696,0.0,9.8,1111122 
TCOON,ioos:station:TCOON:042:1,2017-04-06T16:30:00Z,27.8888,-97.5696,0.0,9.7,1111122 
TCOON,ioos:station:TCOON:042:1,2017-04-06T17:30:00Z,27.8888,-97.5696,0.0,9.6,1111122 
TCOON,ioos:station:TCOON:042:1,2017-04-06T18:30:00Z,27.8888,-97.5696,0.0,9.6,1111122 
TCOON,ioos:station:TCOON:042:1,2017-04-06T19:30:00Z,27.8888,-97.5696,0.0,9.6,1111122 
TCOON,ioos:station:TCOON:042:1,2017-04-06T20:30:00Z,27.8888,-97.5696,0.0,9.8,1111122 
TCOON,ioos:station:TCOON:042:1,2017-04-06T21:30:00Z,27.8888,-97.5696,0.0,9.6,1111122 
TCOON,ioos:station:TCOON:042:1,2017-04-06T22:30:00Z,27.8888,-97.5696,0.0,10.3,1111122 
TCOON,ioos:station:TCOON:042:1,2017-04-06T23:30:00Z,27.8888,-97.5696,0.0,9.3,1111122 
TCOON,ioos:station:TCOON:042:1,2017-04-07T00:30:00Z,27.8888,-97.5696,0.0,10.0,1111122 
TCOON,ioos:station:TCOON:042:1,2017-04-07T01:30:00Z,27.8888,-97.5696,0.0,9.9,1111122 
TCOON,ioos:station:TCOON:042:1,2017-04-07T02:30:00Z,27.8888,-97.5696,0.0,10.0,1111122 
TCOON,ioos:station:TCOON:042:1,2017-04-07T03:30:00Z,27.8888,-97.5696,0.0,9.7,1111122 
TCOON,ioos:station:TCOON:042:1,2017-04-07T04:30:00Z,27.8888,-97.5696,0.0,9.8,1111122 
TCOON,ioos:station:TCOON:042:1,2017-04-07T05:30:00Z,27.8888,-97.5696,0.0,9.9,1111122 
TCOON,ioos:station:TCOON:042:1,2017-04-07T06:30:00Z,27.8888,-97.5696,0.0,9.9,1111122 
TCOON,ioos:station:TCOON:042:1,2017-04-07T07:30:00Z,27.8888,-97.5696,0.0,9.8,1111122 
TCOON,ioos:station:TCOON:042:1,2017-04-07T08:30:00Z,27.8888,-97.5696,0.0,9.8,1111122 
TCOON,ioos:station:TCOON:042:1,2017-04-07T09:30:00Z,27.8888,-97.5696,0.0,9.8,1111122 
TCOON,ioos:station:TCOON:042:1,2017-04-07T10:30:00Z,27.8888,-97.5696,0.0,9.7,1111122 
TCOON,ioos:station:TCOON:042:1,2017-04-07T11:30:00Z,27.8888,-97.5696,0.0,9.7,1111122 
TCOON,ioos:station:TCOON:042:1,2017-04-07T12:30:00Z,27.8888,-97.5696,0.0,9.7,1111122 
TCOON,ioos:station:TCOON:042:1,2017-04-07T13:30:00Z,27.8888,-97.5696,0.0,9.7,1111122 
TCOON,ioos:station:TCOON:042:1,2017-04-07T14:30:00Z,27.8888,-97.5696,0.0,9.6,1111122 
TCOON,ioos:station:TCOON:042:1,2017-04-07T15:30:00Z,27.8888,-97.5696,0.0,10.9,1111122 
TCOON,ioos:station:TCOON:042:1,2017-04-07T16:30:00Z,27.8888,-97.5696,0.0,10.0,1111122 
TCOON,ioos:station:TCOON:042:1,2017-04-07T17:30:00Z,27.8888,-97.5696,0.0,10.5,1111122 
TCOON,ioos:station:TCOON:042:1,2017-04-07T18:30:00Z,27.8888,-97.5696,0.0,11.6,1111122 
TCOON,ioos:station:TCOON:042:1,2017-04-07T19:30:00Z,27.8888,-97.5696,0.0,13.6,1111122 
TCOON,ioos:station:TCOON:042:1,2017-04-07T20:30:00Z,27.8888,-97.5696,0.0,15.2,1111122 
TCOON,ioos:station:TCOON:042:1,2017-04-07T21:30:00Z,27.8888,-97.5696,0.0,14.0,1111122 
TCOON,ioos:station:TCOON:042:1,2017-04-07T22:30:00Z,27.8888,-97.5696,0.0,15.4,1111122 
TCOON,ioos:station:TCOON:042:1,2017-04-07T23:30:00Z,27.8888,-97.5696,0.0,16.4,1111122 
TCOON,ioos:station:TCOON:042:1,2017-04-08T00:30:00Z,27.8888,-97.5696,0.0,14.9,1111122 
TCOON,ioos:station:TCOON:042:1,2017-04-08T01:30:00Z,27.8888,-97.5696,0.0,16.4,1111122 
TCOON,ioos:station:TCOON:042:1,2017-04-08T02:30:00Z,27.8888,-97.5696,0.0,10.0,1111122 
TCOON,ioos:station:TCOON:042:1,2017-04-08T03:30:00Z,27.8888,-97.5696,0.0,15.4,1111122 
TCOON,ioos:station:TCOON:042:1,2017-04-08T04:30:00Z,27.8888,-97.5696,0.0,16.5,1111122 
TCOON,ioos:station:TCOON:042:1,2017-04-08T05:30:00Z,27.8888,-97.5696,0.0,15.2,1111122 
TCOON,ioos:station:TCOON:042:1,2017-04-08T06:30:00Z,27.8888,-97.5696,0.0,15.0,1111122 
TCOON,ioos:station:TCOON:042:1,2017-04-08T07:30:00Z,27.8888,-97.5696,0.0,16.1,1111122 
TCOON,ioos:station:TCOON:042:1,2017-04-08T08:30:00Z,27.8888,-97.5696,0.0,9.2,1111122 
TCOON,ioos:station:TCOON:042:1,2017-04-08T09:30:00Z,27.8888,-97.5696,0.0,15.5,1111122 
TCOON,ioos:station:TCOON:042:1,2017-04-08T10:30:00Z,27.8888,-97.5696,0.0,16.4,1111122 
TCOON,ioos:station:TCOON:042:1,2017-04-08T11:30:00Z,27.8888,-97.5696,0.0,16.0,1111122 
TCOON,ioos:station:TCOON:042:1,2017-04-08T12:30:00Z,27.8888,-97.5696,0.0,14.7,1111122 
TCOON,ioos:station:TCOON:042:1,2017-04-08T13:30:00Z,27.8888,-97.5696,0.0,13.6,1111122 
TCOON,ioos:station:TCOON:042:1,2017-04-08T14:30:00Z,27.8888,-97.5696,0.0,14.6,1111122 
TCOON,ioos:station:TCOON:042:1,2017-04-08T15:30:00Z,27.8888,-97.5696,0.0,14.4,1111122 
TCOON,ioos:station:TCOON:042:1,2017-04-08T16:30:00Z,27.8888,-97.5696,0.0,8.6,1111122 
TCOON,ioos:station:TCOON:042:1,2017-04-08T17:30:00Z,27.8888,-97.5696,0.0,8.0,1111122 
TCOON,ioos:station:TCOON:042:1,2017-04-08T18:30:00Z,27.8888,-97.5696,0.0,8.8,1111122 
TCOON,ioos:station:TCOON:042:1,2017-04-08T19:30:00Z,27.8888,-97.5696,0.0,9.1,1111122 
TCOON,ioos:station:TCOON:042:1,2017-04-08T20:30:00Z,27.8888,-97.5696,0.0,9.5,1111122 
TCOON,ioos:station:TCOON:042:1,2017-04-08T21:30:00Z,27.8888,-97.5696,0.0,9.4,1111122 
TCOON,ioos:station:TCOON:042:1,2017-04-08T22:30:00Z,27.8888,-97.5696,0.0,9.8,1111122 
TCOON,ioos:station:TCOON:042:1,2017-04-08T23:30:00Z,27.8888,-97.5696,0.0,10.0,1111122 
TCOON,ioos:station:TCOON:042:1,2017-04-09T00:30:00Z,27.8888,-97.5696,0.0,9.9,1111122 
TCOON,ioos:station:TCOON:042:1,2017-04-09T01:30:00Z,27.8888,-97.5696,0.0,10.1,1111122 
TCOON,ioos:station:TCOON:042:1,2017-04-09T02:30:00Z,27.8888,-97.5696,0.0,11.8,1111122 
TCOON,ioos:station:TCOON:042:1,2017-04-09T03:30:00Z,27.8888,-97.5696,0.0,14.7,1111122 
TCOON,ioos:station:TCOON:042:1,2017-04-09T04:30:00Z,27.8888,-97.5696,0.0,14.8,1111122 
TCOON,ioos:station:TCOON:042:1,2017-04-09T05:30:00Z,27.8888,-97.5696,0.0,15.1,1111122 
TCOON,ioos:station:TCOON:042:1,2017-04-09T06:30:00Z,27.8888,-97.5696,0.0,14.5,1111122 
TCOON,ioos:station:TCOON:042:1,2017-04-09T07:30:00Z,27.8888,-97.5696,0.0,14.5,1111122 
TCOON,ioos:station:TCOON:042:1,2017-04-09T08:30:00Z,27.8888,-97.5696,0.0,14.9,1111122 
TCOON,ioos:station:TCOON:042:1,2017-04-09T09:30:00Z,27.8888,-97.5696,0.0,15.5,1111122 
TCOON,ioos:station:TCOON:042:1,2017-04-09T10:30:00Z,27.8888,-97.5696,0.0,15.1,1111122 
TCOON,ioos:station:TCOON:042:1,2017-04-09T11:30:00Z,27.8888,-97.5696,0.0,5.8,1111122 
TCOON,ioos:station:TCOON:042:1,2017-04-09T12:30:00Z,27.8888,-97.5696,0.0,11.1,1111122 
TCOON,ioos:station:TCOON:042:1,2017-04-09T13:30:00Z,27.8888,-97.5696,0.0,15.0,1111122 
TCOON,ioos:station:TCOON:042:1,2017-04-09T14:30:00Z,27.8888,-97.5696,0.0,15.2,1111122 
TCOON,ioos:station:TCOON:042:1,2017-04-09T15:30:00Z,27.8888,-97.5696,0.0,15.3,1111122 
TCOON,ioos:station:TCOON:042:1,2017-04-09T16:30:00Z,27.8888,-97.5696,0.0,15.8,1111122 
TCOON,ioos:station:TCOON:042:1,2017-04-09T17:30:00Z,27.8888,-97.5696,0.0,15.8,1111122 
TCOON,ioos:station:TCOON:042:1,2017-04-09T18:30:00Z,27.8888,-97.5696,0.0,15.8,1111122 
TCOON,ioos:station:TCOON:042:1,2017-04-09T19:30:00Z,27.8888,-97.5696,0.0,16.0,1111122 
TCOON,ioos:station:TCOON:042:1,2017-04-09T20:30:00Z,27.8888,-97.5696,0.0,15.2,1111122 
TCOON,ioos:station:TCOON:042:1,2017-04-09T21:30:00Z,27.8888,-97.5696,0.0,15.5,1111122 
TCOON,ioos:station:TCOON:042:1,2017-04-09T22:30:00Z,27.8888,-97.5696,0.0,17.3,1111122 
TCOON,ioos:station:TCOON:042:1,2017-04-09T23:30:00Z,27.8888,-97.5696,0.0,16.9,1111122 
TCOON,ioos:station:TCOON:042:1,2017-04-10T00:30:00Z,27.8888,-97.5696,0.0,16.3,1111122 
TCOON,ioos:station:TCOON:042:1,2017-04-10T01:30:00Z,27.8888,-97.5696,0.0,16.3,1111122 
TCOON,ioos:station:TCOON:042:1,2017-04-10T02:30:00Z,27.8888,-97.5696,0.0,14.0,1111122 
TCOON,ioos:station:TCOON:042:1,2017-04-10T03:30:00Z,27.8888,-97.5696,0.0,6.7,1111122 
TCOON,ioos:station:TCOON:042:1,2017-04-10T04:30:00Z,27.8888,-97.5696,0.0,15.2,1111122 
TCOON,ioos:station:TCOON:042:1,2017-04-10T05:30:00Z,27.8888,-97.5696,0.0,16.2,1111122 
TCOON,ioos:station:TCOON:042:1,2017-04-10T06:30:00Z,27.8888,-97.5696,0.0,16.0,1111122 
TCOON,ioos:station:TCOON:042:1,2017-04-10T07:30:00Z,27.8888,-97.5696,0.0,6.5,1111122 
TCOON,ioos:station:TCOON:042:1,2017-04-10T08:30:00Z,27.8888,-97.5696,0.0,16.0,1111122 
TCOON,ioos:station:TCOON:042:1,2017-04-10T09:30:00Z,27.8888,-97.5696,0.0,7.7,1111122 
TCOON,ioos:station:TCOON:042:1,2017-04-10T10:30:00Z,27.8888,-97.5696,0.0,7.7,1111122 
TCOON,ioos:station:TCOON:042:1,2017-04-10T11:30:00Z,27.8888,-97.5696,0.0,17.5,1111122 
TCOON,ioos:station:TCOON:042:1,2017-04-10T12:30:00Z,27.8888,-97.5696,0.0,12.2,1111122 
TCOON,ioos:station:TCOON:042:1,2017-04-10T13:30:00Z,27.8888,-97.5696,0.0,20.9,1111122 
TCOON,ioos:station:TCOON:042:1,2017-04-10T14:30:00Z,27.8888,-97.5696,0.0,20.2,1111122 
TCOON,ioos:station:TCOON:042:1,2017-04-10T15:30:00Z,27.8888,-97.5696,0.0,19.4,1111122 
TCOON,ioos:station:TCOON:042:1,2017-04-10T16:30:00Z,27.8888,-97.5696,0.0,19.5,1111122 
TCOON,ioos:station:TCOON:042:1,2017-04-10T17:30:00Z,27.8888,-97.5696,0.0,19.5,1111122 
TCOON,ioos:station:TCOON:042:1,2017-04-10T18:30:00Z,27.8888,-97.5696,0.0,19.8,1111122 
TCOON,ioos:station:TCOON:042:1,2017-04-10T20:30:00Z,27.8888,-97.5696,0.0,19.7,1111122 
TCOON,ioos:station:TCOON:042:1,2017-04-10T21:30:00Z,27.8888,-97.5696,0.0,19.4,1111122 
TCOON,ioos:station:TCOON:042:1,2017-04-10T22:30:00Z,27.8888,-97.5696,0.0,20.0,1111122 
TCOON,ioos:station:TCOON:042:1,2017-04-10T23:30:00Z,27.8888,-97.5696,0.0,18.8,1111122 
TCOON,ioos:station:TCOON:042:1,2017-04-11T00:30:00Z,27.8888,-97.5696,0.0,20.2,1111122 
TCOON,ioos:station:TCOON:042:1,2017-04-11T01:30:00Z,27.8888,-97.5696,0.0,21.7,1111122 
TCOON,ioos:station:TCOON:042:1,2017-04-11T02:30:00Z,27.8888,-97.5696,0.0,17.7,1111122 
TCOON,ioos:station:TCOON:042:1,2017-04-11T03:30:00Z,27.8888,-97.5696,0.0,22.0,1111122 
TCOON,ioos:station:TCOON:042:1,2017-04-11T04:30:00Z,27.8888,-97.5696,0.0,16.4,1111122 
TCOON,ioos:station:TCOON:042:1,2017-04-11T05:30:00Z,27.8888,-97.5696,0.0,15.3,1111122 
TCOON,ioos:station:TCOON:042:1,2017-04-11T06:30:00Z,27.8888,-97.5696,0.0,21.1,1111122 
TCOON,ioos:station:TCOON:042:1,2017-04-11T07:30:00Z,27.8888,-97.5696,0.0,21.6,1111122 
TCOON,ioos:station:TCOON:042:1,2017-04-11T08:30:00Z,27.8888,-97.5696,0.0,21.4,1111122 
TCOON,ioos:station:TCOON:042:1,2017-04-11T09:30:00Z,27.8888,-97.5696,0.0,21.7,1111122 
TCOON,ioos:station:TCOON:042:1,2017-04-11T10:30:00Z,27.8888,-97.5696,0.0,21.4,1111122 
TCOON,ioos:station:TCOON:042:1,2017-04-11T11:30:00Z,27.8888,-97.5696,0.0,21.4,1111122 
TCOON,ioos:station:TCOON:042:1,2017-04-11T12:30:00Z,27.8888,-97.5696,0.0,22.4,1111122 
TCOON,ioos:station:TCOON:042:1,2017-04-11T13:30:00Z,27.8888,-97.5696,0.0,22.5,1111122 
TCOON,ioos:station:TCOON:042:1,2017-04-11T14:30:00Z,27.8888,-97.5696,0.0,22.3,1111122 
TCOON,ioos:station:TCOON:042:1,2017-04-11T15:30:00Z,27.8888,-97.5696,0.0,23.0,1111122 
TCOON,ioos:station:TCOON:042:1,2017-04-11T16:30:00Z,27.8888,-97.5696,0.0,22.9,1111122 
TCOON,ioos:station:TCOON:042:1,2017-04-11T17:30:00Z,27.8888,-97.5696,0.0,22.9,1111122 
TCOON,ioos:station:TCOON:042:1,2017-04-11T18:30:00Z,27.8888,-97.5696,0.0,23.4,1111122 
TCOON,ioos:station:TCOON:042:1,2017-04-11T19:30:00Z,27.8888,-97.5696,0.0,23.8,1111122 
TCOON,ioos:station:TCOON:042:1,2017-04-11T20:30:00Z,27.8888,-97.5696,0.0,23.5,1111122 
TCOON,ioos:station:TCOON:042:1,2017-04-11T21:30:00Z,27.8888,-97.5696,0.0,23.0,1111122 
TCOON,ioos:station:TCOON:042:1,2017-04-11T22:30:00Z,27.8888,-97.5696,0.0,23.2,1111122 
TCOON,ioos:station:TCOON:042:1,2017-04-11T23:30:00Z,27.8888,-97.5696,0.0,22.9,1111122 
TCOON,ioos:station:TCOON:042:1,2017-04-12T00:30:00Z,27.8888,-97.5696,0.0,22.5,1111122 
TCOON,ioos:station:TCOON:042:1,2017-04-12T01:30:00Z,27.8888,-97.5696,0.0,18.6,1111122 
TCOON,ioos:station:TCOON:042:1,2017-04-12T02:30:00Z,27.8888,-97.5696,0.0,18.9,1111122 
TCOON,ioos:station:TCOON:042:1,2017-04-12T03:30:00Z,27.8888,-97.5696,0.0,16.3,1111122 
TCOON,ioos:station:TCOON:042:1,2017-04-12T04:30:00Z,27.8888,-97.5696,0.0,16.0,1111122 
TCOON,ioos:station:TCOON:042:1,2017-04-12T05:30:00Z,27.8888,-97.5696,0.0,17.1,1111122 
TCOON,ioos:station:TCOON:042:1,2017-04-12T06:30:00Z,27.8888,-97.5696,0.0,17.3,1111122 
TCOON,ioos:station:TCOON:042:1,2017-04-12T07:30:00Z,27.8888,-97.5696,0.0,17.0,1111122 
TCOON,ioos:station:TCOON:042:1,2017-04-12T08:30:00Z,27.8888,-97.5696,0.0,17.3,1111122 
TCOON,ioos:station:TCOON:042:1,2017-04-12T09:30:00Z,27.8888,-97.5696,0.0,17.8,1111122 
TCOON,ioos:station:TCOON:042:1,2017-04-12T10:30:00Z,27.8888,-97.5696,0.0,18.5,1111122 
TCOON,ioos:station:TCOON:042:1,2017-04-12T11:30:00Z,27.8888,-97.5696,0.0,17.8,1111122 
TCOON,ioos:station:TCOON:042:1,2017-04-12T12:30:00Z,27.8888,-97.5696,0.0,18.5,1111122 
TCOON,ioos:station:TCOON:042:1,2017-04-12T13:30:00Z,27.8888,-97.5696,0.0,16.6,1111122 
TCOON,ioos:station:TCOON:042:1,2017-04-12T14:30:00Z,27.8888,-97.5696,0.0,17.5,1111122 
TCOON,ioos:station:TCOON:042:1,2017-04-12T15:30:00Z,27.8888,-97.5696,0.0,16.6,1111122 
TCOON,ioos:station:TCOON:042:1,2017-04-12T16:30:00Z,27.8888,-97.5696,0.0,18.4,1111122 
TCOON,ioos:station:TCOON:042:1,2017-04-12T17:30:00Z,27.8888,-97.5696,0.0,16.4,1111122 
TCOON,ioos:station:TCOON:042:1,2017-04-12T18:30:00Z,27.8888,-97.5696,0.0,19.5,1111122 
TCOON,ioos:station:TCOON:042:1,2017-04-12T19:30:00Z,27.8888,-97.5696,0.0,20.0,1111122 
TCOON,ioos:station:TCOON:042:1,2017-04-12T20:30:00Z,27.8888,-97.5696,0.0,18.4,1111122 
TCOON,ioos:station:TCOON:042:1,2017-04-12T21:30:00Z,27.8888,-97.5696,0.0,19.9,1111122 
TCOON,ioos:station:TCOON:042:1,2017-04-12T22:30:00Z,27.8888,-97.5696,0.0,21.4,1111122 
TCOON,ioos:station:TCOON:042:1,2017-04-12T23:30:00Z,27.8888,-97.5696,0.0,21.3,1111122 
TCOON,ioos:station:TCOON:042:1,2017-04-13T00:30:00Z,27.8888,-97.5696,0.0,21.0,1111122 
TCOON,ioos:station:TCOON:042:1,2017-04-13T01:30:00Z,27.8888,-97.5696,0.0,20.8,1111122 
TCOON,ioos:station:TCOON:042:1,2017-04-13T02:30:00Z,27.8888,-97.5696,0.0,18.1,1111122 
TCOON,ioos:station:TCOON:042:1,2017-04-13T03:30:00Z,27.8888,-97.5696,0.0,18.4,1111122 
TCOON,ioos:station:TCOON:042:1,2017-04-13T04:30:00Z,27.8888,-97.5696,0.0,18.8,1111122 
TCOON,ioos:station:TCOON:042:1,2017-04-13T05:30:00Z,27.8888,-97.5696,0.0,18.8,1111122 
TCOON,ioos:station:TCOON:042:1,2017-04-13T06:30:00Z,27.8888,-97.5696,0.0,18.3,1111122 
TCOON,ioos:station:TCOON:042:1,2017-04-13T07:30:00Z,27.8888,-97.5696,0.0,18.7,1111122 
TCOON,ioos:station:TCOON:042:1,2017-04-13T08:30:00Z,27.8888,-97.5696,0.0,20.0,1111122 
TCOON,ioos:station:TCOON:042:1,2017-04-13T09:30:00Z,27.8888,-97.5696,0.0,18.7,1111122 
TCOON,ioos:station:TCOON:042:1,2017-04-13T10:30:00Z,27.8888,-97.5696,0.0,19.6,1111122 
TCOON,ioos:station:TCOON:042:1,2017-04-13T11:30:00Z,27.8888,-97.5696,0.0,21.6,1111122 
TCOON,ioos:station:TCOON:042:1,2017-04-13T12:30:00Z,27.8888,-97.5696,0.0,16.4,1111122 
TCOON,ioos:station:TCOON:042:1,2017-04-13T13:30:00Z,27.8888,-97.5696,0.0,16.3,1111122 
TCOON,ioos:station:TCOON:042:1,2017-04-13T14:30:00Z,27.8888,-97.5696,0.0,15.6,1111122 
TCOON,ioos:station:TCOON:042:1,2017-04-13T15:30:00Z,27.8888,-97.5696,0.0,17.8,1111122 
TCOON,ioos:station:TCOON:042:1,2017-04-13T16:30:00Z,27.8888,-97.5696,0.0,22.6,1111122 
TCOON,ioos:station:TCOON:042:1,2017-04-13T17:30:00Z,27.8888,-97.5696,0.0,23.8,1111122 
TCOON,ioos:station:TCOON:042:1,2017-04-13T18:30:00Z,27.8888,-97.5696,0.0,23.5,1111122 
TCOON,ioos:station:TCOON:042:1,2017-04-13T19:30:00Z,27.8888,-97.5696,0.0,24.4,1111122 
TCOON,ioos:station:TCOON:042:1,2017-04-13T20:30:00Z,27.8888,-97.5696,0.0,24.5,1111122 
TCOON,ioos:station:TCOON:042:1,2017-04-13T21:30:00Z,27.8888,-97.5696,0.0,24.2,1111122 
TCOON,ioos:station:TCOON:042:1,2017-04-13T22:30:00Z,27.8888,-97.5696,0.0,24.0,1111122 
TCOON,ioos:station:TCOON:042:1,2017-04-13T23:30:00Z,27.8888,-97.5696,0.0,24.1,1111122 
TCOON,ioos:station:TCOON:042:1,2017-04-14T00:30:00Z,27.8888,-97.5696,0.0,24.4,1111122 
TCOON,ioos:station:TCOON:042:1,2017-04-14T01:30:00Z,27.8888,-97.5696,0.0,24.1,1111122 
TCOON,ioos:station:TCOON:042:1,2017-04-14T02:30:00Z,27.8888,-97.5696,0.0,24.4,1111122 
TCOON,ioos:station:TCOON:042:1,2017-04-14T03:30:00Z,27.8888,-97.5696,0.0,24.4,1111122 
TCOON,ioos:station:TCOON:042:1,2017-04-14T04:30:00Z,27.8888,-97.5696,0.0,24.6,1111122 